Regional Weather Roundup
Issued by NWS

Home | Current Version | Previous Version | Graphics & Text | Print | Product List | Glossary On
Versions: 1 2 3 4 5 6 7 8 9 10 11 12 13 14 15 16 17 18 19 20 21 22 23 24 25 26 27 28 29 30 31 32 33 34 35 36 37 38 39 40 41 42 43 44 45 46 47 48 49 50
000
ASUS43 KDMX 012107
RWRIA

WEATHER ROUNDUP FOR IOWA
NATIONAL WEATHER SERVICE DES MOINES IA
400 PM CDT MON JUN 01 2015

NOTE: "FAIR" INDICATES FEW OR NO CLOUDS BELOW 12,000 FEET WITH NO
SIGNIFICANT WEATHER AND/OR OBSTRUCTIONS TO VISIBILITY.

* - THESE STATIONS ARE NOT NWS STATIONS...THUS NOT UNDER NWS
QUALITY CONTROL.  THEY ALSO DO NOT REPORT WEATHER SUCH
AS PRECIPITATION OR FOG.

IAZ001>003-012>014-020>022-031>034-043>046-012200-
   NORTHWEST IOWA

CITY           SKY/WX    TMP DP  RH WIND       PRES   REMARKS
CARROLL *      SUNNY     72  48  43 SE13      30.12F
CHEROKEE *     SUNNY     73  46  38 S14       30.09F
DENISON *      SUNNY     73  50  43 S15       30.09F
LE MARS *      SUNNY     77  50  38 S15       30.07F
ORANGE CITY *  SUNNY     73  48  40 S15G21    30.07F
SHELDON *      SUNNY     75  46  35 S15G22    30.07F
SIOUX CITY     SUNNY     77  50  38 S16       30.07F
SPENCER        SUNNY     75  48  38 S13G21    30.10F
$$

IAZ055>058-069>071-079>083-090>094-012200-
   SOUTHWEST IOWA

CITY           SKY/WX    TMP DP  RH WIND       PRES   REMARKS
ATLANTIC *     SUNNY     72  50  46 SE8G17    30.11F
AUDUBON *      SUNNY     72  50  46 SE6       30.13F
CLARINDA *     MOSUNNY   72  52  49 SE7       30.14S
COUNCIL BLFS * SUNNY     73  54  49 SE13      30.11F
CRESTON *      SUNNY     70  50  49 SE8G14    30.14S
HARLAN  *      SUNNY     72  50  46 SE9G17    30.14F
LAMONI         SUNNY     72  52  49 E7        30.14F
RED OAK *      SUNNY     72  52  49 S13       30.12F
SHENANDOAH *   SUNNY     72  52  49 SE8G15    30.12F
$$

IAZ047>049-059>061-072>074-084-012200-
   CENTRAL IOWA

CITY           SKY/WX    TMP DP  RH WIND       PRES   REMARKS
AMES           SUNNY     71  42  35 SE5       30.14F
ANKENY *       SUNNY     72  45  37 VRB5      30.14F
CHARITON *     SUNNY     70  52  52 SE8       30.15F
DES MOINES     PTSUNNY   71  42  35 CALM      30.14F
GRINNELL*      MOSUNNY   70  50  49 SE6       30.16F
KNOXVILLE *    MOSUNNY   70  50  49 SE8       30.14F
MARSHALLTOWN   SUNNY     69  45  41 SE10      30.15F
PELLA *        MOSUNNY   72  55  56 SE8       30.16S
PERRY *          N/A     72  43  35 SE10      30.13F
$$

IAZ004>006-015-016-023>025-035-036-012200-
   NORTH CENTRAL IOWA

CITY           SKY/WX    TMP DP  RH WIND       PRES   REMARKS
ALGONA *       SUNNY     72 -35   1 SE15      30.13F
CLARION *      SUNNY     72  36  26 E8G20     30.14F
ESTHERVILLE    SUNNY     71  47  42 SE16      30.12F
FORT DODGE *   SUNNY     72  46  40 S10G17    30.14F
MASON CITY     SUNNY     69  35  28 SE9       30.17F
FOREST CITY *  SUNNY     68  39  34 SE7       30.15F
IOWA FALLS *     N/A     70  37  30 E5        30.16F
$$

IAZ007>011-017>019-026>030-037>042-050>054-066-012200-
   NORTHEAST IOWA

CITY           SKY/WX    TMP DP  RH WIND       PRES   REMARKS
CEDAR RAPIDS   SUNNY     70  43  37 E12G17    30.15F
CHARLES CITY * SUNNY     70  41  35 VRB6G15   30.18S
CLINTON *      SUNNY     68  46  45 NE7       30.20F
DECORAH *      SUNNY     66  39  37 E6G15     30.18F
DUBUQUE        SUNNY     67  39  35 E10       30.19F
MONTICELLO *   SUNNY     70  37  30 E12       30.17F
OELWEIN *      SUNNY     70  37  30 E12G18    30.18F
WATERLOO       SUNNY     71  46  40 SE7       30.16F
$$

IAZ064-065-067-068-078-012200-
   EAST CENTRAL IOWA

CITY           SKY/WX    TMP DP  RH WIND       PRES   REMARKS
DAVENPORT      MOSUNNY   69  45  41 SE6       30.17F
IOWA CITY      MOSUNNY   70  46  42 SE6       30.16F
MT. PLEASANT * CLOUDY    72  48  43 SE7       30.15F
MUSCATINE *    PTSUNNY   72  48  43 E12       30.16F
QUAD CITIES    CLOUDY    70  49  47 E8        30.16F
$$

IAZ062-063-075>077-085>089-095>099-012200-
   SOUTHEAST IOWA

CITY           SKY/WX    TMP DP  RH WIND       PRES   REMARKS
BURLINGTON     CLOUDY    68  54  60 E7        30.16S
FAIRFIELD *    MOSUNNY   70  50  49 E13       30.15F
FORT MADISON *   N/A     70  55  60 SE9       30.16F
KEOKUK *       CLOUDY    68  55  64 VRB6G13   30.15F
OSKALOOSA *    CLOUDY    70  50  49 SE8       30.16S
CENTERVILLE *  MOSUNNY   64  64 100 SE8       30.17F
OTTUMWA        MOSUNNY   69  54  58 SE8       30.15F
WASHINGTON *   MOSUNNY   70  48  46 E9        30.16F
$$

ABBREVIATIONS USED IN REMARKS
   TC - TEMPERATURES IN CELSIUS
  WCI - WIND CHILL INDEX
   HX - HEAT INDEX
  VSB - VISIBILITY
$$



USA.gov is the U.S. government's official web portal to all federal, state and local government web resources and services.